Date String (YYYY-MM-DD hh:mm:ss) UTC,Instrument flags,Ambient pressure (hPa),Sample flow (lpm),Bypass flow (lpm),Sample temperature (°C),Ambient temperature (°C),ASC tube jacket temperature (°C),LED temperature (°C),Box temperature (°C),Sample RH (%),Span deviation,Mass concentration (μg/m³),Mass concentration (μg/m³),Mass concentration (μg/m³)
DateTimeUTC,F1_M11,P_M11,Q1_M11,Q2_M11,T1_M11,T2_M11,T3_M11,T4_M11,T5_M11,U1_M11,ZSPAN_M11,X0_M11,X2_M11,X1_M11
2022-11-30 13:00:00,,0826.4,5.00,0.00,22.1,21.6,00.0,30.9,24.0,07.9,0000.0,0006.72,0004.21,0003.97
2022-11-30 13:01:00,,0826.4,4.99,0.00,22.2,22.1,00.0,31.0,24.1,07.9,0000.0,0006.70,0004.20,0003.95
2022-11-30 13:02:00,,0826.3,5.01,0.00,22.2,21.8,00.0,31.0,24.1,08.0,0000.0,0006.67,0004.20,0003.95
2022-11-30 13:03:00,,0826.4,5.01,0.00,22.2,21.5,00.0,31.0,24.0,08.0,0000.0,0006.53,0004.18,0003.95
2022-11-30 13:04:00,,0826.5,5.00,0.00,22.2,21.1,00.0,31.0,23.9,07.9,0000.0,0006.47,0004.17,0003.94
2022-11-30 13:05:00,,0826.4,5.00,0.00,22.1,20.8,00.0,31.0,23.8,07.9,0000.0,0006.40,0004.18,0003.94
2022-11-30 13:06:00,,0826.4,4.99,0.00,22.1,20.6,00.0,31.0,23.8,07.9,0000.0,0006.40,0004.17,0003.92
2022-11-30 13:07:00,,0826.3,5.00,0.00,22.1,20.4,00.0,31.0,23.8,07.9,0000.0,0006.40,0004.18,0003.91
2022-11-30 13:08:00,,0826.2,5.01,0.00,22.0,20.3,00.0,31.0,23.8,08.0,0000.0,0006.33,0004.17,0003.90
2022-11-30 13:09:00,,0826.3,5.01,0.00,22.1,21.0,00.0,31.0,23.8,08.0,0000.0,0006.33,0004.18,0003.91
2022-11-30 13:10:00,,0826.5,4.99,0.00,22.2,22.0,00.0,30.9,24.1,07.9,0000.0,0006.30,0004.18,0003.91
2022-11-30 13:11:00,,0826.5,4.99,0.00,22.2,22.0,00.0,31.0,24.1,07.9,0000.0,0006.42,0004.20,0003.92
2022-11-30 13:12:00,,0826.4,5.01,0.00,22.2,21.6,00.0,31.0,24.1,07.9,0000.0,0006.62,0004.23,0003.93
2022-11-30 13:13:00,,0826.5,4.99,0.00,22.2,21.2,00.0,31.0,24.0,07.9,0000.0,0006.55,0004.21,0003.93
2022-11-30 13:14:00,,0826.5,5.00,0.00,22.1,20.9,00.0,31.0,23.9,07.8,0000.0,0006.51,0004.20,0003.93
2022-11-30 13:15:00,,0826.4,5.01,0.00,22.1,20.6,00.0,31.0,23.8,07.9,0000.0,0006.79,0004.21,0003.93
2022-11-30 13:16:00,,0826.2,5.00,0.00,22.1,20.3,00.0,31.0,23.8,08.0,0000.0,0007.50,0004.20,0003.93
2022-11-30 13:17:00,,0826.2,5.00,0.00,22.0,20.3,00.0,31.0,23.7,08.0,0000.0,0007.47,0004.19,0003.93
2022-11-30 13:18:00,,0826.4,5.00,0.00,22.0,20.5,00.0,31.0,23.7,08.0,0000.0,0007.42,0004.18,0003.93
2022-11-30 13:19:00,,0826.5,5.00,0.00,22.1,21.5,00.0,30.9,23.9,07.9,0000.0,0007.44,0004.20,0003.93
2022-11-30 13:20:00,,0826.4,4.99,0.00,22.2,22.2,00.0,30.9,24.1,07.8,0000.0,0007.43,0004.19,0003.93
2022-11-30 13:21:00,,0826.4,5.00,0.00,22.2,21.9,00.0,31.0,24.1,07.8,0000.0,0007.41,0004.18,0003.91
2022-11-30 13:22:00,,0826.4,5.01,0.00,22.2,21.5,00.0,31.0,24.0,07.8,0000.0,0007.30,0004.16,0003.91
2022-11-30 13:23:00,,0826.3,5.00,0.00,22.2,21.1,00.0,31.0,23.9,07.9,0000.0,0007.15,0004.13,0003.90
2022-11-30 13:24:00,,0826.3,5.00,0.00,22.1,20.8,00.0,31.0,23.8,07.9,0000.0,0007.09,0004.12,0003.90
2022-11-30 13:25:00,,0826.5,4.99,0.00,22.1,20.5,00.0,31.0,23.8,07.9,0000.0,0007.09,0004.13,0003.90
2022-11-30 13:26:00,,0826.5,5.00,0.00,22.0,20.3,00.0,31.0,23.7,07.9,0000.0,0006.69,0004.12,0003.90
2022-11-30 13:27:00,,0826.5,5.00,0.00,22.0,20.3,00.0,31.0,23.7,07.8,0000.0,0005.98,0004.11,0003.91
2022-11-30 13:28:00,,0826.5,5.02,0.00,22.1,21.3,00.0,30.9,23.9,07.8,0000.0,0005.96,0004.11,0003.91
2022-11-30 13:29:00,,0826.4,5.00,0.00,22.2,22.1,00.0,30.9,24.0,07.8,0000.0,0006.12,0004.12,0003.91
2022-11-30 13:30:00,,0826.5,5.00,0.00,22.2,21.9,00.0,31.0,24.1,07.8,0000.0,0006.29,0004.12,0003.93
2022-11-30 13:31:00,,0826.5,5.00,0.00,22.2,21.4,00.0,31.0,24.0,07.8,0000.0,0006.23,0004.11,0003.93
2022-11-30 13:32:00,,0826.5,4.99,0.00,22.1,21.1,00.0,31.0,23.9,07.7,0000.0,0006.26,0004.12,0003.93
2022-11-30 13:33:00,,0826.5,5.02,0.00,22.1,20.8,00.0,31.0,23.9,07.7,0000.0,0006.27,0004.12,0003.92
2022-11-30 13:34:00,,0826.5,4.99,0.00,22.1,20.6,00.0,31.0,23.8,07.7,0000.0,0006.11,0004.11,0003.93
2022-11-30 13:35:00,,0826.7,5.00,0.00,22.0,20.4,00.0,31.0,23.7,07.6,0000.0,0006.09,0004.10,0003.93
2022-11-30 13:36:00,,0826.7,5.00,0.00,22.0,20.2,00.0,31.0,23.7,07.6,0000.0,0006.19,0004.10,0003.93
2022-11-30 13:37:00,,0826.6,5.01,0.00,22.0,20.7,00.0,30.9,23.7,07.6,0000.0,0006.22,0004.10,0003.92
2022-11-30 13:38:00,,0826.5,5.00,0.00,22.1,21.7,00.0,30.9,23.9,07.6,0000.0,0006.22,0004.13,0003.92
2022-11-30 13:39:00,,0826.5,4.99,0.00,22.2,22.1,00.0,30.9,24.1,07.5,0000.0,0006.58,0004.15,0003.93
2022-11-30 13:40:00,,0826.5,5.00,0.00,22.2,21.7,00.0,31.0,24.0,07.6,0000.0,0006.49,0004.14,0003.94
2022-11-30 13:41:00,,0826.5,5.00,0.00,22.2,21.3,00.0,31.0,24.0,07.6,0000.0,0006.35,0004.13,0003.93
2022-11-30 13:42:00,,0826.5,5.00,0.00,22.1,21.0,00.0,31.0,23.9,07.5,0000.0,0006.59,0004.15,0003.92
2022-11-30 13:43:00,,0826.5,5.00,0.00,22.1,20.9,00.0,31.0,23.8,07.5,0000.0,0006.63,0004.16,0003.93
2022-11-30 13:44:00,,0826.7,4.99,0.00,22.1,20.7,00.0,31.0,23.8,07.6,0000.0,0006.58,0004.15,0003.93
2022-11-30 13:45:00,,0826.6,5.00,0.00,22.0,20.5,00.0,31.0,23.7,07.5,0000.0,0006.58,0004.15,0003.92
2022-11-30 13:46:00,,0826.5,5.01,0.00,22.0,20.4,00.0,31.0,23.7,07.5,0000.0,0006.53,0004.13,0003.90
2022-11-30 13:47:00,,0826.6,5.00,0.00,22.0,21.2,00.0,30.9,23.8,07.5,0000.0,0006.55,0004.12,0003.89
2022-11-30 13:48:00,,0826.6,5.00,0.00,22.1,22.1,00.0,30.9,24.0,07.5,0000.0,0006.61,0004.11,0003.89
2022-11-30 13:49:00,,0826.7,4.98,0.00,22.2,22.0,00.0,31.0,24.1,07.4,0000.0,0006.47,0004.07,0003.86
2022-11-30 13:50:00,,0826.6,5.00,0.00,22.2,21.6,00.0,31.0,24.0,07.3,0000.0,0006.16,0004.04,0003.84
2022-11-30 13:51:00,,0826.5,5.01,0.00,22.2,21.2,00.0,31.0,23.9,07.3,0000.0,0006.30,0004.04,0003.82
2022-11-30 13:52:00,,0826.7,5.00,0.00,22.1,21.0,00.0,31.0,23.9,07.2,0000.0,0006.31,0004.04,0003.82
2022-11-30 13:53:00,,0826.7,4.98,0.00,22.1,20.8,00.0,31.0,23.8,07.1,0000.0,0006.19,0004.05,0003.82
2022-11-30 13:54:00,,0826.7,5.00,0.00,22.1,20.7,00.0,31.0,23.8,07.2,0000.0,0006.78,0004.25,0004.00
2022-11-30 13:55:00,,0826.6,5.01,0.00,22.0,20.6,00.0,31.0,23.8,07.1,0000.0,0007.38,0004.46,0004.17
2022-11-30 13:56:00,,0826.8,5.00,0.00,22.1,21.3,00.0,30.9,23.9,07.1,0000.0,0007.53,0004.56,0004.28
2022-11-30 13:57:00,,0826.7,5.00,0.00,22.2,22.2,00.0,30.9,24.1,07.0,0000.0,0008.46,0004.69,0004.36
2022-11-30 13:58:00,,0826.5,5.00,0.00,22.2,22.1,00.0,31.0,24.2,07.0,0000.0,0008.69,0004.80,0004.43
2022-11-30 13:59:00,,0826.6,5.00,0.00,22.2,21.7,00.0,31.0,24.1,06.9,0000.0,0008.79,0004.87,0004.50
